Theta_e
330 330 331 331 334 335 337 339 338 339 343 343 342 345 344 345 341 336 334 335 343 343 343 345 347 349 347 348 347 348 350 350 351
328 330 331 332 334 334 335 337 335 337 340 343 343 347 345 343 344 342 341 342 342 345 346 348 349 350 350 349 350 346 346 348 347
327 331 331 332 332 333 336 336 334 338 338 343 345 345 348 346 342 345 346 346 345 343 344 342 344 344 344 347 348 347 349 346 347
325 329 332 332 332 334 337 338 338 337 338 344 344 344 346 347 346 344 346 347 346 345 344 343 340 340 339 343 347 345 345 347 347
323 329 330 333 333 334 335 335 337 338 339 346 346 347 346 346 347 347 346 347 347 346 342 342 339 339 337 342 344 347 347 347 348
326 328 329 330 333 332 333 336 337 341 346 346 345 342 342 343 345 345 347 347 347 346 341 338 336 340 340 337 340 347 349 347 345
325 327 328 329 331 332 334 336 337 341 343 345 342 341 336 335 339 344 346 348 346 345 342 336 332 338 343 343 346 349 349 350 347
327 327 328 329 329 331 334 334 336 337 336 338 338 336 337 340 339 338 337 337 341 345 346 343 339 337 342 347 348 350 348 349 348
326 326 328 332 332 333 337 337 336 337 337 334 336 336 337 339 340 338 336 334 334 334 341 346 346 346 346 347 351 342 342 347 349
327 328 332 333 334 334 334 335 340 338 337 337 336 337 339 341 339 340 340 337 335 335 334 339 345 347 348 347 349 339 338 342 345
325 330 332 335 335 334 334 335 336 337 340 339 337 336 337 338 336 337 338 335 336 338 338 338 343 346 347 348 348 336 334 338 344
327 328 331 334 333 333 335 336 338 339 339 338 337 335 335 337 333 331 332 333 335 341 343 343 346 347 346 348 349 332 332 335 342
327 330 331 331 331 330 332 336 339 338 336 335 336 337 338 338 336 332 332 337 340 344 345 346 347 347 348 342 348 332 328 332 342
324 323 325 326 326 326 325 328 331 331 332 331 334 336 337 338 340 340 341 341 344 345 344 343 342 342 343 345 343 345 325 324 340
320 320 322 322 323 324 324 328 329 329 331 333 336 335 332 334 336 340 342 339 341 342 341 340 339 342 342 343 344 329 326 320 323
317 318 319 319 319 320 324 327 327 329 332 334 333 331 329 332 334 336 334 333 331 330 331 333 333 333 331 333 337 333 319 317 317
316 317 318 318 318 318 324 330 331 332 333 332 330 328 328 330 332 331 327 321 319 325 327 329 331 333 330 331 331 329 327 325 325
316 319 319 319 320 322 322 328 329 330 331 333 330 329 327 330 331 329 314 308 309 313 314 312 320 327 329 331 329 328 318 318 324
319 318 318 319 323 323 322 327 327 327 328 328 329 325 325 328 329 328 321 310 307 303 302 300 298 298 302 317 305 305 303 301 301
317 319 322 323 322 321 324 325 324 325 328 330 327 325 324 329 325 328 320 316 316 315 306 301 298 297 298 299 305 298 299 301 302
Wind_Speed
18 16 14 12 12 12 10 8 6 6 9 11 9 8 8 7 8 5 5 6 4 5 4 4 3 5 5 5 5 5 5 3 3
14 17 17 17 15 15 15 14 11 11 7 9 10 10 6 7 7 7 7 7 4 3 3 5 6 6 3 3 5 5 4 3 3
8 13 15 14 15 13 6 10 9 7 8 11 12 10 8 7 7 7 6 5 6 7 5 3 7 8 8 7 6 6 5 4 3
11 12 15 15 13 10 14 6 5 7 8 8 9 10 5 6 7 8 6 6 6 7 7 7 6 6 5 6 6 7 5 5 5
7 12 11 11 13 11 10 8 7 9 6 4 6 8 8 9 8 7 8 8 7 7 8 6 6 6 4 3 5 6 6 6 4
7 6 8 8 16 16 15 12 8 8 9 13 16 3 3 4 7 9 10 9 7 7 7 6 5 6 5 7 6 7 6 7 6
6 6 9 6 11 14 15 13 11 9 9 14 12 4 1 3 6 7 8 9 6 7 8 8 7 7 7 7 7 6 6 6 7
8 8 9 7 8 6 7 8 6 6 6 6 5 7 6 5 3 1 2 3 3 5 7 9 9 8 9 9 7 6 7 7 7
9 10 9 10 10 10 8 7 8 8 7 8 7 8 8 6 6 5 2 3 5 3 4 7 9 11 11 11 8 11 12 9 6
11 10 9 10 9 8 9 8 8 9 8 7 10 10 11 9 7 8 6 4 5 7 4 7 9 10 9 10 10 12 14 14 6
9 9 11 9 7 6 6 7 7 7 7 7 6 6 6 5 7 7 2 5 9 10 5 10 12 9 9 10 9 13 14 14 8
8 9 8 7 8 6 6 7 8 8 7 7 6 6 7 7 6 6 6 10 12 9 8 10 11 10 9 9 12 13 15 12 7
11 12 11 10 8 6 9 7 7 8 7 7 7 7 8 8 8 9 9 9 9 8 11 10 6 8 9 12 10 11 15 13 6
10 9 10 8 7 8 8 7 7 7 7 8 7 6 5 4 5 6 7 6 4 4 4 5 6 6 7 7 8 8 13 13 7
10 10 9 8 7 4 3 6 8 7 7 5 6 4 2 3 4 4 3 4 2 2 3 4 3 4 4 4 5 6 7 10 15
9 10 8 6 8 5 3 4 4 8 7 7 5 3 3 3 3 3 3 4 2 2 3 2 3 3 3 3 3 3 4 7 10
8 7 7 5 7 5 3 3 7 7 6 5 4 4 3 3 4 5 4 3 3 0 1 3 3 3 3 3 3 3 2 2 3
7 7 6 6 6 4 2 5 6 7 6 5 4 4 2 4 4 5 4 4 1 1 1 2 2 3 3 2 3 3 3 2 2
7 8 5 5 6 5 3 5 5 5 5 5 6 3 3 3 4 4 4 4 2 5 1 5 5 9 6 1 5 4 4 7 8
7 7 7 7 5 4 5 3 3 2 4 5 5 3 3 2 3 3 4 3 4 3 3 5 8 6 1 11 4 6 11 12 12
Wind_Direction
174 185 192 183 183 188 197 177 200 195 191 201 198 195 185 186 183 188 207 215 228 221 198 217 184 204 200 218 195 202 196 184 167
176 184 191 189 194 193 197 196 198 197 189 200 205 201 183 187 194 192 201 222 166 249 241 220 207 186 200 246 235 211 207 208 211
164 181 182 189 200 194 177 214 196 175 185 202 200 203 180 204 203 207 204 193 187 191 217 221 173 170 174 189 223 226 203 208 213
171 174 185 184 198 196 201 206 184 199 201 197 208 201 182 200 213 207 216 205 191 189 203 222 224 188 186 203 207 210 205 222 209
170 174 172 180 191 186 207 228 222 219 220 190 202 192 187 189 196 211 211 217 193 189 205 207 217 219 200 235 250 235 202 223 223
168 160 194 193 183 190 200 208 207 182 170 163 235 92 308 252 211 208 217 222 206 184 196 224 223 206 207 213 218 234 216 218 221
162 153 144 146 160 187 201 200 193 172 175 189 199 140 358 304 308 271 233 227 219 190 192 195 216 222 207 220 221 219 215 215 223
141 129 127 135 143 159 190 188 164 147 162 157 141 144 190 187 121 125 124 70 346 276 204 201 206 212 228 226 221 224 218 219 217
152 142 130 135 141 141 136 150 169 183 182 175 159 182 204 223 184 198 222 328 292 292 318 252 200 211 216 221 223 219 214 209 214
162 155 139 148 146 142 147 148 144 170 180 170 197 208 216 220 207 209 206 201 265 269 276 296 253 222 211 220 223 217 219 221 218
168 149 144 148 148 138 137 129 130 141 149 170 174 191 216 205 212 229 225 234 249 274 243 251 262 240 222 225 224 216 220 225 223
152 140 143 141 137 131 142 142 143 142 149 172 184 205 215 224 211 213 225 217 217 229 239 242 234 239 230 219 236 212 219 217 216
126 128 137 141 139 137 133 168 156 147 154 158 169 177 195 210 213 214 213 235 244 226 217 241 237 236 223 221 234 213 219 214 212
127 136 139 144 147 156 172 171 154 167 172 185 194 172 182 192 224 240 238 234 217 247 244 244 244 236 235 224 209 231 219 207 205
124 119 113 114 98 112 157 164 155 174 192 198 167 175 196 260 230 245 229 229 279 283 272 269 285 270 265 267 264 252 247 221 208
135 128 122 113 114 100 65 160 186 166 194 165 159 175 234 255 272 138 106 120 70 4 358 256 252 250 266 278 306 305 318 281 232
130 130 123 116 99 96 107 92 140 156 164 182 173 183 234 263 187 140 98 74 60 8 262 276 279 253 244 273 269 264 274 296 252
135 129 117 111 112 105 112 163 148 158 170 169 202 229 218 237 185 150 124 94 96 159 246 256 280 267 306 261 262 258 229 229 228
142 138 135 119 121 132 138 160 181 197 190 190 179 215 289 227 176 163 161 159 143 36 321 315 286 274 238 273 284 280 130 97 77
147 133 133 138 150 154 150 129 112 270 215 174 164 184 243 226 218 176 155 163 180 189 207 114 46 13 356 215 237 151 123 113 94